Flag for Italy Weather past 2 weeks in Trieste, Italy

Now
83 °F

Partly sunny.


Feels Like: 85 °F
Forecast: 69 / 85 °F
Wind: 9 mph from Northeast

Location: Trieste

Current Time: Jul 28, 2015 at 1:07:53 PM

Latest Report: Jul 28, 2015 at 12:00 PM


Visibility: 13 mi

Pressure: 29.74 "Hg

Humidity: 54%

Dew point: 65 °F

Location of TriesteLocation

Historic Weather in Trieste — Graph

°F

Trieste temperature yesterday

Maximum temperature yesterday: 84 °F (at 5:00 PM)
Minimum temperature yesterday: 70 °F (at 7:00 AM)
Average temperature yesterday: 77 °F

Past Weeks' High & Low Weather Summary

 TemperatureHumidityPressure
High98 °F (Jul 22, 11:00 AM)96% (Jul 26, 3:00 AM)30.04 "Hg (Jul 26, 3:00 AM)
Low67 °F (Jul 26, 10:00 AM)39% (Jul 23, 9:00 PM)29.69 "Hg (Jul 27, 2:00 PM)
Average83 °F65%29.88 "Hg
* Reported Jul 13 11:00 AM — Jul 28 11:00 AM, Trieste, Weather by CustomWeather, © 2015

Note: Actual official high and low records may vary slightly from our data, if they occured in-between our weather recording intervals... More about our weather records

Advertising

Trieste weather history for previous 24 hours

 ConditionsComfort  
Time TempWeatherWind HumidityBarometerVisibility
11:00 AM
Tue, Jul 28
83 °FScattered clouds.10 mph54%29.74 "Hg12 mi
10:00 AM80 °FPartly sunny.9 mph57%29.74 "Hg12 mi
9:00 AM76 °FPartly sunny.13 mph62%29.75 "Hg12 mi
8:00 AM73 °FOvercast.13 mph64%29.73 "Hg12 mi
7:00 AM72 °FOvercast.13 mph67%29.73 "Hg12 mi
6:00 AM71 °FOvercast.13 mph67%29.72 "Hg12 mi
4:00 AM71 °FPassing clouds.15 mph67%29.72 "Hg12 mi
3:00 AM72 °FPassing clouds.17 mph67%29.72 "Hg12 mi
2:00 AM71 °FPassing clouds.12 mph73%29.73 "Hg12 mi
1:00 AM72 °FPassing clouds.10 mph69%29.74 "Hg12 mi
12:00 AM73 °FPassing clouds.15 mph65%29.73 "Hg12 mi
10:00 PM
Mon, Jul 27
75 °FPassing clouds.10 mph63%29.70 "Hg12 mi
9:00 PM79 °FPassing clouds.6 mph62%29.70 "Hg12 mi
8:00 PM81 °FScattered clouds.No wind72%29.69 "Hg12 mi
7:00 PM82 °FPassing clouds.No wind65%29.69 "Hg12 mi
6:00 PM81 °FPassing clouds.No wind67%29.69 "Hg12 mi
5:00 PM84 °FPassing clouds.2 mph63%29.69 "Hg12 mi
4:00 PM82 °FPassing clouds.1 mph65%29.69 "Hg12 mi
3:00 PM81 °FPassing clouds.No wind65%29.69 "Hg12 mi
2:00 PM79 °FPassing clouds.1 mph74%29.69 "Hg12 mi
1:00 PM81 °FScattered clouds.1 mph70%29.70 "Hg12 mi
Weather by CustomWeather, © 2015

See weather overviewHow to use our weather pages